Wind_Speed
15 12 9 10 6 5 4 2 2 5 5 8 11 14 16 18 22 24 24 27 30 31 33 38 41 40 41 46 50 57 52 44 44 44 29 28 31 29 28 22 17 20 21
15 12 12 9 7 7 5 4 1 3 4 9 11 14 17 20 22 23 23 26 29 31 33 37 39 39 42 45 50 56 57 49 45 43 28 34 31 32 28 25 22 23 23
14 13 11 10 9 7 6 5 2 2 4 11 13 15 14 20 22 25 24 24 27 31 33 36 40 41 43 46 51 55 56 48 45 40 35 39 35 31 27 27 28 28 26
15 14 12 12 10 8 7 7 4 3 7 11 15 16 18 19 22 24 25 24 27 31 33 36 39 41 42 46 50 54 58 55 50 43 39 38 37 33 29 26 29 29 30
14 14 13 12 9 8 8 8 5 4 7 10 15 15 17 19 20 23 27 26 26 30 33 36 38 41 41 44 48 53 57 55 49 44 45 45 43 35 29 26 28 31 32
14 14 12 12 11 11 10 9 7 6 8 13 12 11 13 14 18 23 26 29 29 29 32 35 38 41 42 43 46 51 53 55 50 45 43 43 47 46 34 30 31 33 34
14 13 13 13 13 12 11 11 9 8 12 11 10 9 10 14 15 20 22 27 31 31 31 34 37 39 42 42 44 48 50 54 55 49 45 42 44 46 41 37 38 37 35
13 13 14 13 13 12 11 11 10 11 14 12 10 7 7 10 15 17 20 26 31 35 33 33 35 38 41 43 43 44 49 51 55 55 54 48 44 45 47 41 43 35 35
17 17 17 15 13 13 13 13 12 13 17 14 10 4 6 8 12 14 17 22 28 32 35 34 34 38 40 42 43 44 47 50 53 56 59 56 46 44 44 49 47 41 40
21 19 18 19 17 15 15 16 15 16 19 16 9 2 3 8 10 11 13 19 24 28 33 38 35 35 39 41 43 42 44 47 50 52 58 57 54 45 44 46 48 45 48
19 19 18 18 18 19 18 18 17 19 21 16 10 4 4 8 5 7 12 17 20 25 28 33 39 38 36 40 42 43 42 45 47 50 55 60 59 50 44 43 46 49 49
15 15 16 18 20 21 20 20 20 22 23 17 11 5 6 9 9 9 11 15 19 23 26 30 36 39 37 36 40 43 42 43 44 48 51 55 58 55 49 47 42 45 49
16 12 11 16 22 23 23 22 23 25 24 19 13 6 5 8 10 11 12 15 20 22 26 28 33 38 40 38 37 40 43 42 42 45 47 50 55 57 55 52 46 41 47
20 14 10 9 15 24 25 25 27 30 27 21 13 9 7 8 11 14 17 21 23 21 23 26 29 31 35 37 37 36 39 42 40 41 44 46 49 53 56 54 54 48 43
24 19 16 14 11 20 28 28 30 34 30 22 16 12 9 10 12 16 18 22 23 19 22 21 24 29 35 37 40 40 37 37 40 39 40 42 45 50 53 55 54 55 46
26 23 21 18 16 19 25 28 33 37 32 26 20 15 13 13 15 16 19 22 23 22 18 19 25 27 30 32 36 41 39 36 36 37 37 40 41 44 48 52 53 53 55
30 30 30 26 23 19 25 28 37 40 36 32 24 19 18 17 18 21 19 22 24 27 32 24 27 30 31 33 36 35 39 37 34 34 35 35 38 39 42 46 48 51 57
37 35 36 33 29 26 28 33 42 44 40 35 29 24 22 21 22 24 22 23 26 30 31 31 32 33 33 32 32 32 31 36 34 32 30 32 33 35 35 39 43 46 50
39 37 33 32 33 32 31 37 46 49 44 36 32 28 27 27 27 27 27 28 29 31 33 32 35 35 33 33 30 29 28 30 27 27 29 26 29 30 32 32 36 41 44
43 36 30 32 29 35 36 38 49 50 45 38 33 31 31 31 30 31 32 32 32 35 37 36 37 37 33 29 28 27 27 27 27 21 23 26 23 26 27 28 29 32 37
45 38 32 32 30 40 38 43 52 51 48 44 37 35 36 33 33 33 33 35 37 38 36 37 35 30 27 26 25 25 22 27 27 16 17 21 21 20 23 24 24 25 29
34 28 29 35 41 44 52 45 49 52 48 43 39 38 38 38 36 36 38 38 39 38 37 35 27 26 26 25 23 21 18 18 23 16 14 13 20 19 19 20 20 20 21
49 34 32 37 41 47 60 56 45 47 49 46 43 44 45 44 42 40 39 38 38 40 38 29 26 24 21 25 25 21 17 17 23 11 12 19 13 18 17 17 18 16 16
51 48 46 46 44 53 43 43 48 48 50 50 49 47 46 47 42 41 37 37 37 38 34 30 26 23 23 23 23 21 22 23 20 15 12 12 14 15 17 13 14 16 14
54 54 49 57 51 53 45 42 41 46 50 50 51 52 50 52 47 40 38 37 37 35 35 30 25 23 17 20 22 21 20 19 17 23 17 16 17 15 15 16 12 10 13
61 61 61 55 56 48 48 51 50 50 56 55 57 58 58 54 50 45 40 32 34 33 31 28 22 20 18 20 22 21 23 23 23 24 26 23 21 20 18 16 16 13 9
Wind_Direction
214 210 214 233 230 233 247 272 16 44 80 86 59 37 22 12 16 12 10 10 9 8 7 9 7 6 9 10 7 14 16 10 5 4 7 5 1 1 356 1 1 355 355
216 214 218 226 228 227 234 243 291 52 104 93 65 46 36 22 21 16 11 10 7 9 8 10 10 8 10 13 12 15 17 17 8 7 15 9 10 15 16 14 12 12 6
220 216 220 222 218 222 232 240 234 85 127 98 74 54 41 35 24 17 12 10 8 9 10 11 12 11 11 12 14 16 19 21 12 11 13 15 14 19 20 15 16 9 8
210 212 219 222 220 217 223 236 237 152 138 103 85 64 45 35 27 20 13 9 8 9 11 13 14 14 13 13 14 16 18 23 24 22 17 14 17 17 16 13 14 12 9
204 210 216 221 225 214 217 231 234 184 157 120 89 69 50 38 27 23 18 12 9 9 11 14 15 16 14 16 15 16 19 23 28 26 26 26 19 14 13 11 14 7 360
206 211 213 215 217 213 216 221 227 203 165 129 100 73 48 37 25 17 18 13 11 8 10 15 16 19 15 18 16 16 18 23 27 24 21 27 27 25 15 15 10 8 4
210 207 207 216 222 215 217 216 217 200 170 140 109 76 43 28 25 13 13 16 14 10 8 15 16 19 17 17 18 17 17 22 25 26 24 20 23 26 25 26 14 11 14
209 204 209 215 220 216 214 216 213 197 177 151 122 86 35 16 15 8 13 18 19 16 10 13 15 18 20 17 18 18 16 19 23 25 26 24 20 23 25 27 23 26 19
211 208 211 213 214 213 215 212 211 198 178 157 135 106 12 2 4 359 14 18 19 17 15 14 15 16 19 18 17 18 16 15 21 23 25 27 23 20 25 31 28 25 22
214 211 215 218 219 215 216 213 207 197 180 160 158 170 333 339 345 357 20 14 14 11 13 16 14 15 17 18 17 18 16 16 19 21 24 27 27 22 22 30 29 28 27
199 205 209 213 220 222 219 218 208 196 185 169 179 220 283 315 355 11 10 7 7 4 8 11 12 11 15 16 16 17 16 17 15 18 23 24 28 26 18 20 29 30 30
173 190 206 212 218 221 218 221 211 199 178 181 194 231 280 292 312 333 344 347 354 353 356 2 8 8 9 15 15 16 15 17 13 16 21 25 26 30 24 24 24 29 31
173 181 200 218 219 217 215 217 209 197 185 191 198 232 274 300 307 306 310 314 324 334 340 354 2 5 6 8 12 14 14 15 14 15 19 23 25 28 29 28 28 26 32
185 194 211 228 228 225 217 214 205 195 191 199 202 231 269 295 321 320 312 308 312 321 329 346 359 12 7 4 8 10 13 12 13 16 14 20 23 25 29 30 32 32 33
193 204 222 234 242 229 219 214 204 196 196 204 208 236 260 300 317 330 342 344 347 345 334 342 353 7 10 3 7 6 6 11 10 12 13 14 19 22 23 28 32 35 34
211 217 226 239 240 242 224 216 204 199 203 210 213 237 255 280 298 313 327 343 344 356 355 345 348 353 353 0 358 2 3 2 10 9 11 12 15 19 23 25 32 36 38
217 224 232 232 241 245 226 220 205 203 211 216 218 235 251 270 287 293 313 328 333 332 333 336 341 345 346 343 345 354 358 0 0 7 9 11 12 16 20 24 27 33 37
227 222 234 232 235 235 232 218 207 207 214 220 224 238 250 263 272 283 300 306 315 321 324 332 336 337 338 337 335 340 342 350 353 356 7 10 10 12 18 22 25 29 34
227 232 228 230 238 235 240 220 211 211 218 221 230 240 252 258 268 280 290 298 306 315 319 325 326 325 326 329 327 326 330 338 344 345 354 9 9 11 13 20 24 25 32
220 226 228 219 227 228 244 233 217 215 220 224 236 243 253 258 267 277 285 292 300 308 311 315 319 315 312 317 318 318 323 320 329 343 344 354 11 10 11 15 21 26 27
225 217 227 236 232 227 225 218 217 215 220 225 236 244 250 255 263 271 279 288 298 304 310 311 313 308 299 300 310 305 310 317 320 315 339 339 358 11 7 10 15 23 28
243 233 235 240 246 254 230 211 214 219 225 230 242 250 255 258 261 268 278 287 292 298 306 309 310 310 299 301 307 296 300 309 307 304 332 323 346 1 8 3 7 16 24
250 246 237 247 244 246 266 226 209 212 224 231 238 246 252 257 264 269 276 282 290 299 308 309 297 298 297 306 301 292 284 285 289 284 301 322 324 341 359 2 357 0 12
246 257 257 254 270 255 238 210 208 210 221 229 234 240 249 255 264 271 274 280 291 302 306 305 298 292 297 297 299 304 284 277 282 298 278 290 302 313 331 349 355 346 347
247 251 259 259 270 243 219 214 213 217 226 233 240 241 243 250 257 265 268 281 294 300 299 301 299 298 296 288 287 300 286 296 273 284 283 299 279 289 305 315 325 340 330
244 247 249 254 261 261 266 227 215 227 231 230 235 241 250 254 256 261 268 282 293 292 296 296 294 295 289 283 289 282 284 289 288 275 281 284 281 273 278 296 303 302 304
Height
5936 5938 5940 5942 5944 5945 5945 5945 5944 5943 5943 5944 5944 5943 5941 5939 5936 5931 5927 5923 5919 5913 5906 5899 5891 5883 5875 5866 5856 5845 5833 5821 5809 5800 5792 5786 5777 5768 5761 5756 5750 5744 5739
5933 5936 5938 5940 5942 5944 5944 5944 5944 5944 5944 5944 5945 5944 5943 5941 5937 5933 5929 5925 5920 5914 5907 5901 5893 5884 5876 5867 5857 5846 5834 5823 5812 5802 5794 5787 5778 5770 5762 5757 5753 5747 5742
5930 5933 5936 5938 5940 5942 5943 5944 5944 5944 5944 5945 5946 5945 5944 5942 5939 5934 5930 5926 5921 5915 5909 5902 5894 5884 5876 5867 5858 5848 5837 5827 5816 5805 5796 5788 5779 5771 5765 5760 5754 5749 5744
5927 5931 5933 5935 5938 5940 5941 5942 5943 5943 5944 5945 5946 5946 5945 5943 5940 5936 5932 5927 5921 5916 5910 5903 5895 5886 5877 5868 5859 5851 5840 5830 5819 5808 5799 5790 5781 5773 5766 5761 5755 5750 5744
5924 5928 5930 5933 5936 5938 5939 5941 5942 5943 5944 5945 5946 5947 5946 5944 5941 5937 5933 5927 5922 5917 5911 5905 5897 5888 5880 5872 5862 5853 5842 5833 5823 5814 5804 5794 5784 5776 5769 5763 5755 5750 5743
5922 5925 5928 5931 5933 5935 5937 5939 5941 5942 5943 5945 5946 5947 5947 5945 5942 5938 5933 5928 5923 5918 5913 5906 5899 5891 5882 5875 5865 5856 5846 5837 5827 5820 5811 5801 5791 5781 5771 5764 5757 5750 5742
5919 5922 5925 5928 5930 5933 5934 5936 5939 5940 5942 5944 5945 5946 5946 5945 5943 5939 5935 5930 5925 5919 5914 5908 5900 5893 5886 5878 5869 5861 5851 5841 5832 5824 5816 5806 5795 5785 5776 5767 5760 5750 5743
5917 5920 5923 5925 5928 5930 5932 5934 5936 5938 5941 5943 5944 5945 5945 5944 5942 5940 5936 5932 5927 5921 5916 5910 5903 5896 5889 5880 5873 5866 5856 5848 5838 5828 5821 5811 5800 5790 5780 5771 5762 5753 5745
5913 5917 5920 5922 5925 5928 5930 5932 5934 5937 5939 5941 5943 5944 5944 5943 5942 5940 5937 5933 5929 5923 5918 5911 5905 5899 5892 5884 5876 5869 5860 5852 5842 5833 5824 5814 5804 5796 5786 5774 5767 5757 5748
5909 5913 5916 5919 5922 5925 5927 5929 5931 5934 5937 5940 5941 5943 5943 5943 5941 5940 5937 5934 5930 5925 5920 5914 5907 5901 5895 5888 5880 5873 5866 5858 5848 5839 5829 5820 5810 5801 5791 5782 5773 5763 5753
5905 5908 5912 5915 5918 5922 5924 5925 5928 5931 5934 5938 5940 5941 5942 5941 5940 5939 5937 5934 5931 5926 5922 5916 5910 5904 5897 5892 5884 5876 5870 5861 5855 5846 5835 5825 5815 5806 5799 5788 5779 5769 5760
5901 5905 5908 5911 5914 5918 5920 5922 5925 5928 5932 5936 5938 5939 5940 5940 5940 5938 5936 5934 5931 5927 5923 5918 5913 5907 5900 5894 5888 5881 5873 5866 5860 5851 5841 5831 5822 5813 5807 5796 5785 5777 5767
5899 5902 5905 5907 5910 5913 5916 5919 5922 5926 5930 5933 5936 5937 5938 5938 5938 5937 5935 5932 5930 5927 5924 5919 5915 5909 5903 5897 5892 5885 5878 5871 5865 5857 5848 5839 5829 5821 5812 5804 5793 5783 5773
5896 5899 5902 5904 5906 5909 5911 5914 5918 5922 5926 5930 5933 5935 5936 5936 5935 5935 5934 5932 5929 5926 5923 5920 5916 5911 5906 5900 5894 5889 5883 5876 5869 5862 5855 5847 5838 5830 5822 5814 5805 5792 5781
5890 5894 5897 5899 5901 5903 5906 5909 5914 5918 5922 5926 5929 5931 5933 5933 5933 5932 5931 5930 5926 5924 5921 5919 5915 5912 5907 5902 5897 5891 5886 5880 5874 5868 5861 5854 5846 5837 5828 5820 5811 5800 5791
5885 5888 5892 5894 5896 5898 5902 5905 5910 5915 5919 5921 5924 5927 5929 5929 5930 5929 5928 5927 5924 5922 5920 5917 5914 5911 5908 5904 5899 5894 5889 5884 5878 5872 5867 5860 5854 5845 5835 5828 5820 5812 5803
5875 5880 5883 5886 5890 5893 5897 5900 5905 5910 5913 5916 5919 5922 5924 5925 5925 5925 5924 5923 5922 5921 5919 5916 5913 5910 5906 5904 5900 5896 5891 5886 5882 5877 5871 5866 5860 5853 5845 5836 5829 5822 5814
5866 5870 5873 5879 5883 5887 5890 5894 5898 5903 5906 5910 5914 5917 5918 5920 5920 5920 5920 5920 5918 5917 5915 5912 5910 5907 5905 5902 5899 5896 5892 5888 5884 5881 5875 5870 5865 5860 5853 5844 5837 5831 5824
5857 5862 5864 5868 5875 5879 5885 5887 5890 5895 5899 5905 5907 5910 5912 5914 5914 5914 5914 5914 5913 5911 5910 5908 5906 5904 5902 5899 5896 5894 5891 5889 5885 5883 5879 5873 5869 5865 5860 5853 5845 5839 5833
5846 5846 5853 5852 5861 5868 5875 5881 5882 5888 5894 5899 5900 5903 5905 5906 5908 5908 5907 5908 5907 5906 5904 5902 5902 5899 5897 5895 5892 5890 5888 5887 5885 5882 5881 5877 5871 5868 5864 5860 5853 5848 5842
5834 5840 5847 5853 5852 5858 5865 5870 5875 5880 5884 5888 5893 5894 5897 5899 5901 5901 5900 5901 5901 5900 5899 5896 5894 5892 5889 5888 5887 5884 5883 5883 5882 5880 5880 5878 5874 5870 5868 5864 5861 5855 5850
5824 5828 5836 5842 5846 5847 5851 5854 5862 5869 5876 5884 5888 5889 5891 5891 5890 5892 5893 5895 5894 5893 5892 5889 5887 5886 5883 5881 5881 5879 5879 5878 5877 5877 5877 5877 5874 5872 5870 5867 5865 5861 5857
5812 5810 5824 5833 5837 5837 5837 5842 5843 5854 5864 5873 5878 5879 5880 5882 5883 5884 5886 5886 5885 5884 5882 5880 5878 5879 5877 5875 5874 5873 5873 5872 5871 5872 5873 5873 5873 5871 5870 5869 5867 5865 5862
5810 5812 5818 5823 5825 5824 5829 5827 5832 5842 5851 5858 5864 5867 5870 5872 5876 5878 5878 5877 5877 5877 5874 5873 5872 5870 5870 5868 5867 5867 5867 5865 5866 5867 5869 5870 5870 5870 5869 5868 5867 5866 5865
5801 5805 5807 5812 5816 5817 5819 5822 5831 5840 5846 5852 5856 5857 5860 5863 5866 5869 5869 5870 5869 5868 5866 5865 5864 5863 5863 5862 5861 5860 5861 5860 5861 5862 5864 5865 5867 5866 5866 5866 5865 5864 5864
5791 5796 5800 5803 5804 5810 5816 5818 5824 5831 5836 5840 5844 5847 5850 5854 5856 5859 5862 5861 5861 5860 5857 5857 5857 5855 5855 5856 5854 5855 5856 5855 5854 5855 5856 5859 5860 5861 5861 5861 5862 5862 5861